Location: Observatoire
(46.1952°N, 5.3391°E)
Time: 14:46:35
(UTC+01:00)

Courier 1B - Pass Details

Date: 18 February 2026
Orbit: 962 x 1208 km, 28.3° (Epoch: 5 March)

Event Time Altitude Azimuth Distance (km) Brightness Sun altitude
Rises 19:53:42 0° 215° (SW) 3,884 11.1 -18.8°
Reaches altitude 10° 19:57:57 10° 192° (SSW) 2,984 10.1 -19.5°
Maximum altitude 20:01:30 14° 163° (SSE) 2,725 9.6 -20.1°
Enters shadow 20:03:16 13° 148° (SSE) 2,819 9.6 -20.4°
